EW5637 Weather Reports


Display with metric or nautical units.
time (UTC)temp
F
wind
direction
speed
MPH
gust
MPH
rain 1hr
in
rain 24hr
in
rain mn
in
humidity
%
barometer
mb
20260902161042 74 324 10.0 20.0 0.14 0.14 0.14 86 1021.7
20260902160542 76 11 11.0 22.0 0.04 0.04 0.04 83 1021.5
20260902155541 78 340 9.0 13.0 0.00 0.00 0.00 84 1021.0
20260902155040 79 340 1.0 3.0 0.00 0.00 0.00 84 1020.5
20260902154603 79 0 0.0 2.0 0.00 0.00 0.00 83 1020.2
20260902154042 79 153 0.0 1.0 0.00 0.00 0.00 82 1020.0
20260902153543 78 0 0.0 3.0 0.00 0.00 0.00 82 1019.7
20260902153055 79 0 1.0 3.0 0.00 0.00 0.00 83 1019.7
20260902152541 79 153 0.0 2.0 0.00 0.00 0.00 82 1019.6
20260902152041 79 153 1.0 6.0 0.00 0.00 0.00 83 1019.2
20260902151607 79 0 0.0 7.0 0.00 0.00 0.00 82 1019.3
20260902151042 79 89 3.0 7.0 0.00 0.00 0.00 81 1019.1
20260902150541 79 0 1.0 7.0 0.00 0.00 0.00 82 1018.9
20260902145542 78 100 3.0 6.0 0.00 0.00 0.00 82 1019.0
20260902145042 78 160 2.0 7.0 0.00 0.00 0.00 82 1019.2
20260902144610 78 103 3.0 7.0 0.00 0.00 0.00 82 1019.1
20260902144045 78 121 3.0 6.0 0.00 0.00 0.00 83 1019.1
20260902143542 78 101 3.0 6.0 0.00 0.00 0.00 83 1019.1
20260902143056 78 92 2.0 7.0 0.00 0.00 0.00 83 1019.1
20260902142539 78 80 2.0 7.0 0.00 0.00 0.00 83 1019.1
20260902142043 78 88 2.0 7.0 0.00 0.00 0.00 83 1019.1
20260902141602 78 0 3.0 7.0 0.00 0.00 0.00 83 1019.1
20260902141041 77 98 2.0 7.0 0.00 0.00 0.00 83 1019.1
20260902140542 77 134 3.0 6.0 0.00 0.00 0.00 83 1019.0
20260902135544 77 115 4.0 8.0 0.00 0.00 0.00 82 1018.9
20260902135042 77 106 4.0 8.0 0.00 0.00 0.00 82 1018.8
20260902134559 78 135 2.0 7.0 0.00 0.00 0.00 82 1018.8
20260902134041 78 141 2.0 4.0 0.00 0.00 0.00 82 1018.8
20260902133542 78 133 2.0 4.0 0.00 0.00 0.00 83 1018.8
20260902133054 78 129 0.0 3.0 0.00 0.00 0.00 82 1018.9
20260902132542 77 129 1.0 3.0 0.00 0.00 0.00 83 1019.0
20260902132039 77 0 0.0 2.0 0.00 0.00 0.00 83 1019.1
20260902131604 77 0 1.0 2.0 0.00 0.00 0.00 83 1019.1
20260902131043 77 0 1.0 3.0 0.00 0.00 0.00 83 1019.1
20260902130559 77 0 0.0 4.0 0.00 0.00 0.00 84 1019.1
20260902130057 76 0 2.0 4.0 0.00 0.00 0.00 83 1018.9
20260902125542 76 0 2.0 4.0 0.00 0.00 0.00 83 1018.8
20260902125042 76 0 0.0 0.0 0.00 0.00 0.00 85 1018.8
20260902124558 76 0 0.0 0.0 0.00 0.00 0.00 86 1018.8
20260902124042 75 0 0.0 0.0 0.00 0.00 0.00 86 1018.8
20260902123543 74 0 0.0 0.0 0.00 0.00 0.00 88 1018.7
20260902123103 74 0 0.0 0.0 0.00 0.00 0.00 89 1018.5
20260902122543 74 0 0.0 0.0 0.00 0.00 0.00 90 1018.6
20260902122041 73 0 0.0 0.0 0.00 0.00 0.00 91 1018.5
20260902121554 72 0 0.0 0.0 0.00 0.00 0.00 93 1018.6
20260902121043 72 0 0.0 0.0 0.00 0.00 0.00 94 1018.5
20260902120542 71 0 0.0 1.0 0.00 0.00 0.00 95 1018.6
20260902115542 70 0 1.0 2.0 0.00 0.00 0.00 95 1018.5
20260902115042 70 0 0.0 0.0 0.00 0.00 0.00 95 1018.6
20260902114556 69 0 0.0 0.0 0.00 0.00 0.00 95 1018.5
20260902114041 69 0 0.0 2.0 0.00 0.00 0.00 95 1018.5
20260902113542 68 0 0.0 3.0 0.00 0.00 0.00 95 1018.5
20260902113056 68 0 1.0 3.0 0.00 0.00 0.00 95 1018.5
20260902112542 67 316 1.0 3.0 0.00 0.00 0.00 95 1018.4
20260902112042 67 0 0.0 0.0 0.00 0.00 0.00 94 1018.6
20260902111551 67 0 0.0 0.0 0.00 0.00 0.00 94 1018.5
20260902111042 67 0 0.0 0.0 0.00 0.00 0.00 93 1018.5
20260902110542 67 0 0.0 3.0 0.00 0.00 0.00 93 1018.5
20260902110055 68 0 0.0 3.0 0.00 0.00 0.00 94 1018.5
20260902105544 67 324 1.0 3.0 0.00 0.00 0.00 94 1018.5
20260902105042 67 0 0.0 0.0 0.00 0.00 0.00 94 1018.5
20260902104557 67 0 0.0 0.0 0.00 0.00 0.00 93 1018.5
20260902104041 67 0 0.0 1.0 0.00 0.00 0.00 93 1018.6
20260902103542 67 0 0.0 1.0 0.00 0.00 0.00 93 1018.6
20260902103054 67 0 0.0 1.0 0.00 0.00 0.00 93 1018.5
20260902102543 67 0 0.0 2.0 0.00 0.00 0.00 93 1018.6
20260902102043 67 0 0.0 2.0 0.00 0.00 0.00 93 1018.7
20260902101553 68 324 1.0 2.0 0.00 0.00 0.00 93 1018.7
20260902101040 68 0 0.0 2.0 0.00 0.00 0.00 93 1018.8
20260902100542 68 0 0.0 3.0 0.00 0.00 0.00 93 1018.7
20260902100054 68 0 1.0 3.0 0.00 0.00 0.00 93 1018.7
20260902095541 68 326 1.0 2.0 0.00 0.00 0.00 93 1018.6
20260902095043 68 0 0.0 0.0 0.00 0.00 0.00 93 1018.6
20260902094615 68 0 0.0 0.0 0.00 0.00 0.00 93 1018.6
20260902094042 68 0 0.0 0.0 0.00 0.00 0.00 93 1018.6
20260902093541 68 0 0.0 0.0 0.00 0.00 0.00 93 1018.7
20260902093053 68 0 0.0 0.0 0.00 0.00 0.00 93 1018.7
20260902092542 68 0 0.0 2.0 0.00 0.00 0.00 93 1018.7
20260902092045 68 0 0.0 3.0 0.00 0.00 0.00 93 1018.7
20260902091603 68 326 1.0 3.0 0.00 0.00 0.00 93 1018.6
20260902091042 68 326 2.0 3.0 0.00 0.00 0.00 93 1018.6
20260902090542 68 325 0.0 4.0 0.00 0.00 0.00 93 1018.6
20260902090055 68 0 0.0 4.0 0.00 0.00 0.00 93 1018.6
20260902085543 68 325 1.0 4.0 0.00 0.00 0.00 93 1018.7
20260902085041 68 325 2.0 4.0 0.00 0.00 0.00 92 1018.6
20260902084552 68 325 2.0 4.0 0.00 0.00 0.00 92 1018.6
20260902084043 68 324 1.0 4.0 0.00 0.00 0.00 92 1018.5
20260902083542 68 323 1.0 3.0 0.00 0.00 0.00 92 1018.5
20260902083103 68 188 0.0 2.0 0.00 0.00 0.00 91 1018.4
20260902082544 69 0 0.0 2.0 0.00 0.00 0.00 91 1018.3
20260902082042 69 186 1.0 2.0 0.00 0.00 0.00 91 1018.3
20260902081558 69 0 0.0 2.0 0.00 0.00 0.00 91 1018.3
20260902081040 69 0 0.0 2.0 0.00 0.00 0.00 91 1018.3
20260902080542 69 0 0.0 2.0 0.00 0.00 0.00 91 1018.3
20260902080111 70 0 0.0 3.0 0.00 0.00 0.00 91 1018.4
20260902075542 70 186 2.0 4.0 0.00 0.00 0.00 90 1018.3
20260902075042 70 185 2.0 4.0 0.00 0.00 0.00 90 1018.3
20260902074552 70 183 2.0 7.0 0.00 0.00 0.00 90 1018.4
20260902074041 71 154 3.0 9.0 0.00 0.00 0.00 89 1018.2
20260902073542 71 143 3.0 9.0 0.00 0.00 0.00 89 1018.1
20260902073100 71 70 4.0 9.0 0.00 0.00 0.00 88 1017.8
20260902072541 72 71 3.0 11.0 0.00 0.00 0.00 88 1017.8
20260902072044 72 84 4.0 11.0 0.00 0.00 0.00 88 1017.7
20260902071553 71 87 6.0 11.0 0.00 0.00 0.00 89 1017.6
20260902071042 71 98 7.0 9.0 0.00 0.00 0.00 90 1017.4
20260902070541 70 108 3.0 6.0 0.00 0.00 0.00 91 1017.3
20260902070100 70 75 3.0 4.0 0.00 0.00 0.00 91 1017.1
20260902065542 70 60 1.0 3.0 0.00 0.00 0.00 91 1016.9
20260902065041 69 58 0.0 4.0 0.00 0.00 0.00 92 1017.0
20260902064608 69 0 0.0 4.0 0.00 0.00 0.00 91 1017.0
20260902064042 69 58 2.0 4.0 0.00 0.00 0.00 92 1017.1
20260902063542 69 57 1.0 4.0 0.00 0.00 0.00 91 1017.1
20260902063105 69 56 1.0 3.0 0.00 0.00 0.00 91 1017.1
20260902062542 69 289 0.0 2.0 0.00 0.00 0.00 90 1017.2
20260902062042 69 0 0.0 1.0 0.00 0.00 0.00 90 1017.2
20260902061559 69 0 0.0 1.0 0.00 0.00 0.00 90 1017.2
20260902061042 70 0 0.0 2.0 0.00 0.00 0.00 90 1017.3
20260902060541 70 0 0.0 2.0 0.00 0.00 0.00 90 1017.3
20260902060109 70 288 0.0 2.0 0.00 0.00 0.00 90 1017.3
20260902055541 70 0 0.0 2.0 0.00 0.00 0.00 89 1017.3
20260902055041 70 0 0.0 2.0 0.00 0.00 0.00 89 1017.6
20260902054554 70 289 0.0 0.0 0.00 0.00 0.00 88 1017.6
20260902054042 71 0 0.0 0.0 0.00 0.00 0.00 88 1017.5
20260902053542 71 0 0.0 2.0 0.00 0.00 0.00 89 1017.5
20260902053120 71 0 0.0 2.0 0.00 0.00 0.00 88 1017.6
20260902052541 71 0 1.0 6.0 0.00 0.00 0.00 87 1017.7
20260902052041 72 289 1.0 6.0 0.00 0.00 0.00 87 1017.8
20260902051555 72 266 1.0 6.0 0.00 0.00 0.00 87 1017.8
20260902051043 72 266 2.0 4.0 0.00 0.00 0.00 87 1017.8
20260902050542 72 298 0.0 3.0 0.00 0.00 0.00 87 1017.8
20260902050058 72 0 2.0 3.0 0.00 0.00 0.00 87 1017.9
20260902045541 72 314 1.0 3.0 0.00 0.00 0.00 87 1018.0
20260902045041 72 314 0.0 3.0 0.00 0.00 0.00 87 1017.9
20260902044555 73 0 0.0 0.0 0.00 0.00 0.00 86 1017.9
20260902044041 73 0 0.0 0.0 0.00 0.00 0.00 86 1018.0
20260902043544 73 0 0.0 3.0 0.00 0.00 0.00 86 1018.1
20260902043101 73 0 0.0 3.0 0.00 0.00 0.00 86 1018.2
20260902042542 73 314 1.0 3.0 0.00 0.00 0.00 85 1018.0
20260902042042 73 314 1.0 5.0 0.00 0.00 0.00 85 1018.3
20260902041554 74 317 1.0 7.0 0.00 0.00 0.00 85 1018.4
20260902041041 74 9 2.0 9.0 0.00 0.00 0.00 85 1018.4
20260902040541 74 360 4.0 10.0 0.00 0.00 0.00 85 1018.5
20260902040055 74 336 4.0 12.0 0.00 0.00 0.00 84 1018.4
20260902035539 75 332 5.0 15.0 0.00 0.00 0.00 83 1018.4
20260902035041 75 21 9.0 15.0 0.00 0.00 0.00 82 1018.6
20260902034601 76 334 4.0 16.0 0.00 0.00 0.00 81 1018.4
20260902034042 76 10 8.0 21.0 0.00 0.00 0.00 80 1018.4
20260902033546 76 340 10.0 21.0 0.00 0.00 0.00 80 1018.4
20260902033101 76 360 13.0 21.0 0.00 0.00 0.00 80 1018.3
20260902032542 76 30 9.0 18.0 0.00 0.00 0.00 80 1018.4
20260902032042 76 21 6.0 11.0 0.00 0.00 0.00 80 1018.1
20260902031558 77 331 5.0 11.0 0.00 0.00 0.00 79 1017.8
20260902031042 77 336 4.0 14.0 0.00 0.00 0.00 79 1017.7
20260902030545 77 13 7.0 14.0 0.00 0.00 0.00 78 1017.5
20260902030053 78 34 9.0 14.0 0.00 0.00 0.00 78 1017.4
20260902025542 78 31 6.0 18.0 0.00 0.00 0.00 79 1017.2
20260902025042 77 338 10.0 19.0 0.00 0.00 0.00 81 1017.2
20260902024550 76 48 12.0 19.0 0.00 0.00 0.00 85 1017.0
20260902024041 76 259 1.0 3.0 0.00 0.00 0.00 85 1016.4
20260902023542 77 259 1.0 3.0 0.00 0.00 0.00 84 1016.2
20260902023057 78 0 0.0 0.0 0.00 0.00 0.00 83 1016.0
20260902022542 78 0 0.0 1.0 0.00 0.00 0.00 81 1015.8
20260902022042 79 0 0.0 4.0 0.00 0.00 0.00 81 1015.7
20260902021745 79 0 0.0 4.0 0.00 0.00 0.00 80 1015.7
20260902021042 79 257 1.0 4.0 0.00 0.00 0.00 80 1015.7
20260902020545 79 0 0.0 6.0 0.00 0.00 0.00 81 1015.8
20260902020050 79 0 0.0 6.0 0.00 0.00 0.00 80 1015.8
20260902015541 79 270 0.0 3.0 0.00 0.00 0.00 81 1015.9
20260902015041 79 0 0.0 3.0 0.00 0.00 0.00 81 1015.8
20260902014552 80 0 0.0 3.0 0.00 0.00 0.00 81 1015.7
20260902014042 80 0 0.0 3.0 0.00 0.00 0.00 81 1015.6
20260902013542 80 0 0.0 3.0 0.00 0.00 0.00 81 1015.6
20260902013137 80 0 1.0 3.0 0.00 0.00 0.00 81 1015.7
20260902012543 80 0 0.0 4.0 0.00 0.00 0.00 81 1015.9
20260902012042 80 0 1.0 4.0 0.00 0.00 0.00 81 1015.8
20260902011555 79 294 2.0 4.0 0.00 0.00 0.00 81 1015.9
20260902011042 79 295 1.0 4.0 0.00 0.00 0.00 81 1015.9
20260902010541 79 296 2.0 4.0 0.00 0.00 0.00 81 1015.9
20260902010059 80 296 3.0 5.0 0.00 0.00 0.00 80 1015.8
20260902005541 81 294 2.0 5.0 0.00 0.00 0.00 78 1015.7
20260902005041 82 292 1.0 7.0 0.00 0.00 0.00 75 1015.4
20260902004602 83 265 1.0 7.0 0.00 0.00 0.00 74 1015.1
20260902004042 83 261 3.0 7.0 0.00 0.00 0.00 74 1015.0
20260902003542 82 276 3.0 7.0 0.00 0.00 0.00 74 1014.9
20260902003100 82 267 2.0 6.0 0.00 0.00 0.00 76 1014.6
20260902002542 81 266 2.0 6.0 0.00 0.00 0.00 77 1014.6
20260902002041 81 0 3.0 6.0 0.00 0.00 0.00 77 1014.5
20260902001602 81 265 2.0 7.0 0.00 0.00 0.00 78 1014.6
20260902001041 81 262 2.0 7.0 0.00 0.00 0.00 79 1014.5
20260902000542 81 281 2.0 6.0 0.00 0.00 0.00 78 1014.5
20260902000101 82 275 1.0 4.0 0.00 0.00 0.00 77 1014.5
20260901235542 82 273 1.0 4.0 0.00 0.00 0.00 77 1014.4
20260901235042 82 269 2.0 5.0 0.00 0.00 0.00 76 1014.2
20260901234556 83 258 2.0 5.0 0.00 0.00 0.00 76 1014.2
20260901234042 83 288 2.0 7.0 0.00 0.00 0.00 75 1014.1
20260901233542 84 288 3.0 7.0 0.00 0.00 0.00 75 1014.1
20260901233100 84 281 3.0 7.0 0.00 0.00 0.00 74 1014.1
20260901232542 85 279 4.0 7.0 0.00 0.00 0.00 73 1014.3
20260901232044 86 280 2.0 6.0 0.00 0.00 0.00 71 1014.1
20260901231558 86 275 2.0 8.0 0.00 0.00 0.00 70 1014.0
20260901231041 86 266 3.0 8.0 0.00 0.00 0.00 70 1014.0
20260901230541 87 265 2.0 6.0 0.00 0.00 0.00 70 1014.1
20260901230055 87 253 2.0 4.0 0.00 0.00 0.00 70 1014.1
20260901225544 87 278 1.0 4.0 0.00 0.00 0.00 68 1014.1
20260901225041 88 0 0.0 7.0 0.00 0.00 0.00 69 1014.0
20260901224559 88 268 2.0 7.0 0.00 0.00 0.00 69 1014.1
20260901224041 89 257 2.0 7.0 0.00 0.00 0.00 67 1014.1
20260901223542 89 263 2.0 7.0 0.00 0.00 0.00 67 1014.2
20260901223054 89 258 2.0 7.0 0.00 0.00 0.00 67 1014.1
20260901222542 90 267 1.0 7.0 0.00 0.00 0.00 67 1014.1
20260901222042 90 255 1.0 6.0 0.00 0.00 0.00 67 1014.1
20260901221554 90 266 2.0 5.0 0.00 0.00 0.00 65 1014.0
20260901221041 90 241 1.0 7.0 0.00 0.00 0.00 66 1014.0
20260901220542 90 256 2.0 7.0 0.00 0.00 0.00 65 1014.2
20260901220054 90 251 3.0 6.0 0.00 0.00 0.00 65 1014.2
20260901215541 90 241 0.0 7.0 0.00 0.00 0.00 64 1014.2
20260901215042 90 269 2.0 7.0 0.00 0.00 0.00 65 1014.3
20260901214557 91 231 0.0 7.0 0.00 0.00 0.00 66 1014.2
20260901214042 91 228 1.0 8.0 0.00 0.00 0.00 65 1014.3
20260901213544 91 232 2.0 8.0 0.00 0.00 0.00 64 1014.2
20260901213102 92 232 3.0 7.0 0.00 0.00 0.00 62 1014.2
20260901212541 92 223 3.0 8.0 0.00 0.00 0.00 63 1014.2
20260901212042 92 260 3.0 10.0 0.00 0.00 0.00 61 1014.3
20260901211553 92 269 3.0 10.0 0.00 0.00 0.00 63 1014.3
20260901211042 92 204 2.0 9.0 0.00 0.00 0.00 61 1014.2
20260901210543 92 199 2.0 9.0 0.00 0.00 0.00 61 1014.2
20260901210051 92 219 2.0 9.0 0.00 0.00 0.00 61 1014.3
20260901205541 92 212 3.0 12.0 0.00 0.00 0.00 61 1014.3
20260901205041 92 244 5.0 12.0 0.00 0.00 0.00 61 1014.3
20260901204554 92 223 3.0 13.0 0.00 0.00 0.00 61 1014.5
20260901204043 92 215 4.0 13.0 0.00 0.00 0.00 59 1014.5
20260901203542 92 206 3.0 10.0 0.00 0.00 0.00 60 1014.4
20260901203103 92 231 4.0 11.0 0.00 0.00 0.00 59 1014.5
20260901202545 92 221 4.0 11.0 0.00 0.00 0.00 59 1014.6
20260901202043 92 202 4.0 11.0 0.00 0.00 0.00 59 1014.6
20260901201555 92 235 4.0 10.0 0.00 0.00 0.00 60 1014.6
20260901201042 92 215 4.0 9.0 0.00 0.00 0.00 61 1014.6
20260901200542 92 250 3.0 9.0 0.00 0.00 0.00 64 1014.6
20260901200106 91 275 3.0 9.0 0.00 0.00 0.00 62 1014.6
20260901195541 92 248 2.0 10.0 0.00 0.00 0.00 64 1014.6
20260901195042 92 288 4.0 12.0 0.00 0.00 0.00 60 1014.6
20260901194601 92 238 6.0 15.0 0.00 0.00 0.00 63 1014.7
20260901194042 92 280 6.0 15.0 0.00 0.00 0.00 62 1014.6
20260901193543 92 282 4.0 12.0 0.00 0.00 0.00 63 1014.8
20260901193110 92 211 4.0 14.0 0.00 0.00 0.00 63 1015.0
20260901192556 92 258 4.0 14.0 0.00 0.00 0.00 63 1015.0
20260901192041 92 234 3.0 16.0 0.00 0.00 0.00 63 1015.0
20260901191553 91 309 7.0 16.0 0.00 0.00 0.00 63 1015.0
20260901191041 91 238 6.0 13.0 0.00 0.00 0.00 64 1015.1
20260901190541 91 257 7.0 13.0 0.00 0.00 0.00 63 1015.2
20260901190104 91 309 3.0 13.0 0.00 0.00 0.00 66 1015.3
20260901185542 91 286 5.0 13.0 0.00 0.00 0.00 65 1015.3
20260901185041 91 244 5.0 13.0 0.00 0.00 0.00 65 1015.4
20260901184600 90 174 5.0 15.0 0.00 0.00 0.00 66 1015.4
20260901184041 90 222 6.0 18.0 0.00 0.00 0.00 65 1015.4
20260901183543 90 256 7.0 18.0 0.00 0.00 0.00 65 1015.4
20260901183056 90 216 6.0 15.0 0.00 0.00 0.00 65 1015.5
20260901182543 90 294 6.0 14.0 0.00 0.00 0.00 69 1015.6
20260901182042 90 229 2.0 16.0 0.00 0.00 0.00 70 1015.6
20260901181601 89 244 5.0 16.0 0.00 0.00 0.00 69 1015.6
20260901181041 89 234 5.0 17.0 0.00 0.00 0.00 69 1015.8
20260901180542 89 220 10.0 17.0 0.00 0.00 0.00 70 1016.0
20260901180105 89 197 6.0 14.0 0.00 0.00 0.00 72 1015.8
20260901175545 88 221 4.0 14.0 0.00 0.00 0.00 70 1016.0
20260901175044 89 288 5.0 11.0 0.00 0.00 0.00 69 1016.0
20260901174603 89 238 5.0 11.0 0.00 0.00 0.00 70 1015.9
20260901174042 88 230 5.0 12.0 0.00 0.00 0.00 69 1015.8
20260901173543 88 179 4.0 12.0 0.00 0.00 0.00 70 1015.8
20260901173102 88 294 6.0 12.0 0.00 0.00 0.00 69 1015.8
20260901172542 88 234 6.0 12.0 0.00 0.00 0.00 70 1015.8
20260901172045 88 254 4.0 14.0 0.00 0.00 0.00 70 1015.9
20260901171603 88 198 4.0 14.0 0.00 0.00 0.00 72 1015.9
20260901171042 87 61 1.0 17.0 0.00 0.00 0.00 73 1015.8
20260901170543 86 181 6.0 17.0 0.00 0.00 0.00 73 1015.8
20260901170106 86 236 4.0 9.0 0.00 0.00 0.00 73 1015.8
20260901165542 85 169 1.0 9.0 0.00 0.00 0.00 78 1016.0
20260901165040 85 120 2.0 10.0 0.00 0.00 0.00 80 1016.0
20260901164602 85 158 4.0 10.0 0.00 0.00 0.00 77 1016.0
20260901164042 85 127 5.0 9.0 0.00 0.00 0.00 76 1016.1
20260901163542 85 191 3.0 10.0 0.00 0.00 0.00 78 1016.3
20260901163100 84 129 4.0 10.0 0.00 0.00 0.00 77 1016.4
20260901162544 83 128 5.0 10.0 0.00 0.00 0.00 80 1016.3
20260901162044 83 114 4.0 10.0 0.00 0.00 0.00 80 1016.4
20260901161557 82 183 4.0 12.0 0.00 0.00 0.00 80 1016.3